| time (UTC) | temp F | wind direction | speed MPH | gust MPH | rain 1hr in | rain 24hr in | rain mn in | humidity % | barometer mb |
| 20260903224607 | 103 | 209 | 3.0 | 12.0 | 0.00 | 0.00 | 0.00 | 17 | 1010.1 |
| 20260903223101 | 104 | 240 | 1.0 | 3.0 | 0.00 | 0.00 | 0.00 | 17 | 1010.1 |
| 20260903221606 | 104 | 217 | 3.0 | 6.0 | 0.00 | 0.00 | 0.00 | 16 | 1010.2 |
| 20260903220121 | 103 | 114 | 1.0 | 5.0 | 0.00 | 0.00 | 0.00 | 17 | 1010.4 |
| 20260903214616 | 104 | 217 | 2.0 | 9.0 | 0.00 | 0.00 | 0.00 | 17 | 1010.6 |
| 20260903213123 | 103 | 83 | 1.0 | 6.0 | 0.00 | 0.00 | 0.00 | 18 | 1010.6 |
| 20260903211603 | 104 | 208 | 2.0 | 7.0 | 0.00 | 0.00 | 0.00 | 17 | 1010.8 |
| 20260903210104 | 104 | 336 | 3.0 | 6.0 | 0.00 | 0.00 | 0.00 | 16 | 1010.9 |
| 20260903204615 | 104 | 282 | 2.0 | 8.0 | 0.00 | 0.00 | 0.00 | 16 | 1011.1 |
| 20260903203111 | 103 | 181 | 1.0 | 6.0 | 0.00 | 0.00 | 0.00 | 16 | 1011.2 |
| 20260903201623 | 103 | 231 | 4.0 | 8.0 | 0.00 | 0.00 | 0.00 | 16 | 1011.3 |
| 20260903200112 | 103 | 291 | 3.0 | 8.0 | 0.00 | 0.00 | 0.00 | 16 | 1011.5 |
| 20260903194612 | 103 | 222 | 3.0 | 8.0 | 0.00 | 0.00 | 0.00 | 17 | 1011.6 |
| 20260903193118 | 103 | 122 | 0.0 | 3.0 | 0.00 | 0.00 | 0.00 | 20 | 1011.7 |
| 20260903191607 | 102 | 112 | 1.0 | 6.0 | 0.00 | 0.00 | 0.00 | 19 | 1011.8 |
| 20260903190105 | 101 | 95 | 1.0 | 8.0 | 0.00 | 0.00 | 0.00 | 20 | 1011.8 |
| 20260903184605 | 100 | 177 | 2.0 | 8.0 | 0.00 | 0.00 | 0.00 | 20 | 1012.0 |
| 20260903183106 | 99 | 327 | 2.0 | 8.0 | 0.00 | 0.00 | 0.00 | 21 | 1012.2 |
| 20260903181607 | 97 | 211 | 2.0 | 7.0 | 0.00 | 0.00 | 0.00 | 22 | 1012.5 |
| 20260903180113 | 96 | 179 | 3.0 | 7.0 | 0.00 | 0.00 | 0.00 | 24 | 1012.7 |
| 20260903174600 | 94 | 231 | 4.0 | 8.0 | 0.00 | 0.00 | 0.00 | 26 | 1012.9 |
| 20260903173107 | 93 | 207 | 4.0 | 9.0 | 0.00 | 0.00 | 0.00 | 27 | 1013.0 |
| 20260903171606 | 92 | 182 | 3.0 | 10.0 | 0.00 | 0.00 | 0.00 | 28 | 1013.1 |
| 20260903170219 | 91 | 210 | 4.0 | 10.0 | 0.00 | 0.00 | 0.00 | 30 | 1013.2 |
| 20260903164603 | 89 | 242 | 5.0 | 9.0 | 0.00 | 0.00 | 0.00 | 32 | 1013.3 |
| 20260903163103 | 88 | 185 | 3.0 | 9.0 | 0.00 | 0.00 | 0.00 | 34 | 1013.2 |
| 20260903161622 | 86 | 236 | 3.0 | 11.0 | 0.00 | 0.00 | 0.00 | 37 | 1013.2 |
| 20260903154601 | 83 | 196 | 6.0 | 13.0 | 0.00 | 0.00 | 0.00 | 40 | 1013.2 |
| 20260903153105 | 82 | 207 | 3.0 | 12.0 | 0.00 | 0.00 | 0.00 | 44 | 1013.4 |
| 20260903151605 | 80 | 247 | 4.0 | 16.0 | 0.00 | 0.00 | 0.00 | 46 | 1013.2 |
| 20260903144602 | 78 | 224 | 7.0 | 18.0 | 0.00 | 0.00 | 0.00 | 49 | 1013.0 |
| 20260903143103 | 77 | 211 | 7.0 | 14.0 | 0.00 | 0.00 | 0.00 | 51 | 1013.2 |
| 20260903141606 | 76 | 226 | 8.0 | 15.0 | 0.00 | 0.00 | 0.00 | 52 | 1013.3 |
| 20260903140104 | 75 | 190 | 6.0 | 11.0 | 0.00 | 0.00 | 0.00 | 57 | 1013.3 |
| 20260903134603 | 74 | 201 | 6.0 | 13.0 | 0.00 | 0.00 | 0.00 | 60 | 1013.2 |
| 20260903133104 | 74 | 188 | 6.0 | 13.0 | 0.00 | 0.00 | 0.00 | 61 | 1013.0 |
| 20260903131609 | 74 | 208 | 6.0 | 12.0 | 0.00 | 0.00 | 0.00 | 61 | 1013.0 |
| 20260903130107 | 73 | 197 | 5.0 | 12.0 | 0.00 | 0.00 | 0.00 | 62 | 1012.8 |
| 20260903124633 | 73 | 181 | 4.0 | 8.0 | 0.00 | 0.00 | 0.00 | 63 | 1012.8 |
| 20260903123106 | 73 | 172 | 3.0 | 8.0 | 0.00 | 0.00 | 0.00 | 63 | 1012.6 |
| 20260903121606 | 73 | 170 | 2.0 | 6.0 | 0.00 | 0.00 | 0.00 | 62 | 1012.7 |
| 20260903120106 | 73 | 197 | 2.0 | 6.0 | 0.00 | 0.00 | 0.00 | 61 | 1012.8 |
| 20260903114614 | 74 | 206 | 3.0 | 8.0 | 0.00 | 0.00 | 0.00 | 60 | 1012.8 |
| 20260903113109 | 74 | 160 | 2.0 | 8.0 | 0.00 | 0.00 | 0.00 | 59 | 1012.7 |
| 20260903111603 | 74 | 182 | 4.0 | 9.0 | 0.00 | 0.00 | 0.00 | 59 | 1012.4 |
| 20260903110107 | 75 | 210 | 4.0 | 10.0 | 0.00 | 0.00 | 0.00 | 57 | 1012.4 |
| 20260903104607 | 75 | 174 | 5.0 | 14.0 | 0.00 | 0.00 | 0.00 | 56 | 1012.4 |
| 20260903103101 | 76 | 166 | 5.0 | 12.0 | 0.00 | 0.00 | 0.00 | 55 | 1012.4 |
| 20260903101602 | 76 | 182 | 6.0 | 12.0 | 0.00 | 0.00 | 0.00 | 54 | 1012.5 |
| 20260903100106 | 77 | 170 | 6.0 | 18.0 | 0.00 | 0.00 | 0.00 | 53 | 1012.5 |
| 20260903094605 | 77 | 145 | 5.0 | 15.0 | 0.00 | 0.00 | 0.00 | 52 | 1012.5 |
| 20260903093110 | 77 | 197 | 6.0 | 13.0 | 0.00 | 0.00 | 0.00 | 51 | 1012.6 |
| 20260903091608 | 77 | 172 | 6.0 | 13.0 | 0.00 | 0.00 | 0.00 | 50 | 1012.6 |
| 20260903090113 | 78 | 201 | 5.0 | 13.0 | 0.00 | 0.00 | 0.00 | 49 | 1012.7 |
| 20260903084618 | 78 | 172 | 6.0 | 13.0 | 0.00 | 0.00 | 0.00 | 48 | 1012.7 |
| 20260903083103 | 78 | 208 | 6.0 | 17.0 | 0.00 | 0.00 | 0.00 | 47 | 1012.6 |
| 20260903081602 | 78 | 192 | 6.0 | 12.0 | 0.00 | 0.00 | 0.00 | 47 | 1012.6 |
| 20260903080105 | 78 | 192 | 5.0 | 16.0 | 0.00 | 0.00 | 0.00 | 47 | 1012.5 |
| 20260903074604 | 78 | 195 | 5.0 | 13.0 | 0.00 | 0.00 | 0.00 | 47 | 1012.6 |
| 20260903073107 | 78 | 139 | 7.0 | 14.0 | 0.00 | 0.00 | 0.00 | 47 | 1012.6 |
| 20260903071603 | 78 | 203 | 6.0 | 16.0 | 0.00 | 0.00 | 0.00 | 47 | 1012.6 |
| 20260903070104 | 78 | 133 | 5.0 | 12.0 | 0.00 | 0.00 | 0.00 | 48 | 1012.5 |
| 20260903064600 | 78 | 181 | 4.0 | 14.0 | 0.00 | 0.00 | 0.00 | 49 | 1012.6 |
| 20260903063103 | 78 | 178 | 5.0 | 15.0 | 0.00 | 0.00 | 0.00 | 49 | 1012.6 |
| 20260903061605 | 78 | 179 | 5.0 | 10.0 | 0.00 | 0.00 | 0.00 | 49 | 1012.7 |
| 20260903060109 | 78 | 203 | 3.0 | 10.0 | 0.00 | 0.00 | 0.00 | 49 | 1012.7 |
| 20260903054558 | 79 | 187 | 3.0 | 9.0 | 0.00 | 0.00 | 0.00 | 49 | 1012.5 |
| 20260903053107 | 79 | 211 | 3.0 | 11.0 | 0.00 | 0.00 | 0.00 | 48 | 1012.5 |
| 20260903051609 | 79 | 204 | 5.0 | 10.0 | 0.00 | 0.00 | 0.00 | 48 | 1012.7 |
| 20260903050105 | 79 | 189 | 4.0 | 8.0 | 0.00 | 0.00 | 0.00 | 48 | 1012.8 |
| 20260903044605 | 80 | 166 | 4.0 | 9.0 | 0.00 | 0.00 | 0.00 | 48 | 1012.8 |
| 20260903043104 | 80 | 168 | 3.0 | 8.0 | 0.00 | 0.00 | 0.00 | 47 | 1012.6 |
| 20260903041601 | 81 | 203 | 3.0 | 8.0 | 0.00 | 0.00 | 0.00 | 46 | 1012.7 |
| 20260903040107 | 82 | 175 | 3.0 | 11.0 | 0.00 | 0.00 | 0.00 | 45 | 1012.6 |
| 20260903034605 | 84 | 192 | 4.0 | 13.0 | 0.00 | 0.00 | 0.00 | 43 | 1012.5 |
| 20260903033110 | 84 | 184 | 4.0 | 10.0 | 0.00 | 0.00 | 0.00 | 41 | 1012.4 |
| 20260903031601 | 85 | 195 | 5.0 | 11.0 | 0.00 | 0.00 | 0.00 | 40 | 1012.4 |
| 20260903030106 | 86 | 206 | 5.0 | 10.0 | 0.00 | 0.00 | 0.00 | 38 | 1012.2 |
| 20260903024604 | 87 | 207 | 3.0 | 9.0 | 0.00 | 0.00 | 0.00 | 38 | 1012.1 |
| 20260903023102 | 87 | 226 | 4.0 | 11.0 | 0.00 | 0.00 | 0.00 | 37 | 1012.0 |
| 20260903021602 | 88 | 192 | 4.0 | 10.0 | 0.00 | 0.00 | 0.00 | 36 | 1011.8 |
| 20260903020104 | 89 | 160 | 4.0 | 11.0 | 0.00 | 0.00 | 0.00 | 33 | 1011.6 |
| 20260903014612 | 91 | 206 | 3.0 | 8.0 | 0.00 | 0.00 | 0.00 | 31 | 1011.4 |
| 20260903013103 | 92 | 192 | 3.0 | 9.0 | 0.00 | 0.00 | 0.00 | 30 | 1011.3 |
| 20260903011603 | 92 | 182 | 3.0 | 9.0 | 0.00 | 0.00 | 0.00 | 28 | 1011.2 |
| 20260903010107 | 94 | 200 | 4.0 | 11.0 | 0.00 | 0.00 | 0.00 | 28 | 1011.2 |
| 20260903004610 | 94 | 214 | 6.0 | 12.0 | 0.00 | 0.00 | 0.00 | 27 | 1011.2 |
| 20260903003102 | 95 | 206 | 6.0 | 14.0 | 0.00 | 0.00 | 0.00 | 27 | 1011.0 |
| 20260903001605 | 96 | 195 | 5.0 | 15.0 | 0.00 | 0.00 | 0.00 | 26 | 1011.0 |
| 20260902234608 | 98 | 197 | 6.0 | 14.0 | 0.00 | 0.00 | 0.00 | 24 | 1010.9 |
| 20260902233116 | 98 | 226 | 9.0 | 17.0 | 0.00 | 0.00 | 0.00 | 24 | 1011.0 |
| 20260902231606 | 98 | 201 | 4.0 | 9.0 | 0.00 | 0.00 | 0.00 | 23 | 1011.2 |
| 20260902230115 | 98 | 185 | 7.0 | 11.0 | 0.00 | 0.00 | 0.00 | 23 | 1011.1 |